| time (UTC) | temp F | wind direction | speed knots | gust knots | rain 1hr in | rain 24hr in | rain mn in | humidity % | barometer mb |
| 20260505102003 | 59 | 163 | 2.6 | 6.1 | 0.00 | 0.46 | 0.33 | 72 | 1014.4 |
| 20260505101517 | 58 | 177 | 1.7 | 5.2 | 0.00 | 0.46 | 0.33 | 72 | 1014.5 |
| 20260505101003 | 58 | 187 | 2.6 | 5.2 | 0.00 | 0.46 | 0.33 | 73 | 1014.4 |
| 20260505100503 | 58 | 237 | 2.6 | 5.2 | 0.00 | 0.46 | 0.33 | 71 | 1014.6 |
| 20260505100003 | 58 | 261 | 3.5 | 9.6 | 0.00 | 0.46 | 0.33 | 74 | 1014.5 |
| 20260505095503 | 58 | 264 | 3.5 | 9.6 | 0.00 | 0.46 | 0.33 | 70 | 1014.5 |
| 20260505095003 | 58 | 279 | 2.6 | 7.8 | 0.00 | 0.46 | 0.33 | 74 | 1014.5 |
| 20260505094503 | 58 | 179 | 1.7 | 6.1 | 0.00 | 0.46 | 0.33 | 76 | 1014.5 |
| 20260505094003 | 58 | 163 | 1.7 | 6.1 | 0.00 | 0.46 | 0.33 | 79 | 1014.5 |
| 20260505093503 | 58 | 171 | 2.6 | 6.1 | 0.00 | 0.46 | 0.33 | 82 | 1014.4 |
| 20260505093004 | 57 | 173 | 2.6 | 6.1 | 0.00 | 0.46 | 0.33 | 82 | 1014.4 |
| 20260505092503 | 56 | 173 | 2.6 | 5.2 | 0.00 | 0.46 | 0.33 | 83 | 1014.4 |
| 20260505092003 | 56 | 193 | 2.6 | 5.2 | 0.00 | 0.47 | 0.33 | 85 | 1014.4 |
| 20260505091503 | 55 | 198 | 2.6 | 6.1 | 0.00 | 0.48 | 0.33 | 87 | 1014.3 |
| 20260505091003 | 54 | 166 | 2.6 | 6.1 | 0.00 | 0.50 | 0.33 | 89 | 1014.4 |
| 20260505090503 | 54 | 187 | 1.7 | 6.1 | 0.00 | 0.50 | 0.33 | 91 | 1014.3 |
| 20260505090017 | 54 | 276 | 0.9 | 3.5 | 0.01 | 0.52 | 0.33 | 93 | 1014.3 |
| 20260505085517 | 54 | 267 | 1.7 | 3.5 | 0.01 | 0.54 | 0.33 | 93 | 1014.3 |
| 20260505085004 | 53 | 229 | 0.9 | 2.6 | 0.02 | 0.54 | 0.33 | 93 | 1014.3 |
| 20260505084503 | 53 | 209 | 0.9 | 2.6 | 0.02 | 0.54 | 0.33 | 93 | 1014.3 |
| 20260505084017 | 52 | 227 | 0.9 | 2.6 | 0.02 | 0.54 | 0.33 | 94 | 1014.3 |
| 20260505083517 | 52 | 270 | 1.7 | 2.6 | 0.02 | 0.54 | 0.33 | 93 | 1014.4 |
| 20260505083003 | 52 | 298 | 1.7 | 3.5 | 0.03 | 0.55 | 0.33 | 93 | 1014.4 |
| 20260505082504 | 51 | 296 | 1.7 | 3.5 | 0.03 | 0.55 | 0.33 | 93 | 1014.5 |
| 20260505082003 | 51 | 295 | 0.9 | 3.5 | 0.04 | 0.55 | 0.33 | 93 | 1014.5 |
| 20260505081503 | 51 | 307 | 0.9 | 3.5 | 0.04 | 0.57 | 0.33 | 93 | 1014.6 |
| 20260505081003 | 51 | 331 | 0.9 | 2.6 | 0.06 | 0.57 | 0.33 | 93 | 1014.6 |
| 20260505080503 | 51 | 337 | 0.9 | 1.7 | 0.07 | 0.57 | 0.33 | 93 | 1014.6 |
| 20260505080003 | 50 | 338 | 0.9 | 1.7 | 0.08 | 0.57 | 0.32 | 93 | 1014.5 |
| 20260505075503 | 50 | 338 | 0.9 | 2.6 | 0.09 | 0.57 | 0.32 | 93 | 1014.5 |
| 20260505075017 | 50 | 338 | 0.9 | 2.6 | 0.09 | 0.56 | 0.31 | 93 | 1014.5 |
| 20260505074517 | 50 | 338 | 0.9 | 1.7 | 0.09 | 0.55 | 0.31 | 93 | 1014.6 |
| 20260505074003 | 51 | 338 | 0.9 | 2.6 | 0.09 | 0.55 | 0.31 | 93 | 1014.6 |
| 20260505073517 | 51 | 338 | 0.9 | 2.6 | 0.10 | 0.55 | 0.31 | 93 | 1014.7 |
| 20260505073003 | 51 | 338 | 0.9 | 2.6 | 0.10 | 0.54 | 0.30 | 93 | 1014.6 |
| 20260505072503 | 51 | 338 | 0.9 | 1.7 | 0.11 | 0.54 | 0.30 | 93 | 1014.5 |
| 20260505072017 | 51 | 338 | 0.9 | 1.7 | 0.13 | 0.54 | 0.29 | 93 | 1014.6 |
| 20260505071503 | 51 | 338 | 0.9 | 1.7 | 0.14 | 0.54 | 0.29 | 93 | 1014.5 |
| 20260505071003 | 51 | 338 | 0.9 | 1.7 | 0.14 | 0.53 | 0.28 | 93 | 1014.5 |
| 20260505070503 | 51 | 331 | 1.7 | 3.5 | 0.13 | 0.51 | 0.26 | 93 | 1014.4 |
| 20260505070003 | 51 | 321 | 1.7 | 4.3 | 0.11 | 0.50 | 0.24 | 93 | 1014.4 |
| 20260505065517 | 51 | 275 | 0.9 | 4.3 | 0.10 | 0.49 | 0.24 | 93 | 1014.3 |
| 20260505065003 | 51 | 227 | 0.9 | 2.6 | 0.09 | 0.48 | 0.23 | 93 | 1014.4 |
| 20260505064503 | 51 | 296 | 0.9 | 2.6 | 0.09 | 0.47 | 0.22 | 93 | 1014.3 |
| 20260505064003 | 51 | 279 | 0.9 | 2.6 | 0.08 | 0.46 | 0.21 | 93 | 1014.3 |
| 20260505063503 | 51 | 179 | 1.7 | 3.5 | 0.07 | 0.46 | 0.20 | 93 | 1014.3 |
| 20260505063003 | 51 | 170 | 1.7 | 4.3 | 0.06 | 0.45 | 0.20 | 93 | 1014.3 |
| 20260505062503 | 51 | 159 | 1.7 | 4.3 | 0.06 | 0.44 | 0.19 | 93 | 1014.4 |
| 20260505062003 | 52 | 146 | 0.9 | 4.3 | 0.03 | 0.42 | 0.17 | 93 | 1014.2 |
| 20260505061503 | 52 | 144 | 0.9 | 2.6 | 0.02 | 0.40 | 0.15 | 92 | 1014.2 |
| 20260505061003 | 52 | 145 | 0.9 | 1.7 | 0.00 | 0.39 | 0.13 | 93 | 1014.1 |
| 20260505060503 | 52 | 178 | 0.9 | 1.7 | 0.00 | 0.39 | 0.13 | 93 | 1014.0 |
| 20260505060003 | 52 | 255 | 0.0 | 1.7 | 0.00 | 0.39 | 0.13 | 92 | 1014.1 |
| 20260505055503 | 52 | 255 | 0.0 | 1.7 | 0.00 | 0.39 | 0.13 | 93 | 1014.1 |
| 20260505055003 | 52 | 255 | 0.9 | 1.7 | 0.00 | 0.39 | 0.13 | 92 | 1014.1 |
| 20260505054503 | 52 | 255 | 0.9 | 1.7 | 0.00 | 0.39 | 0.13 | 92 | 1014.1 |
| 20260505054003 | 52 | 255 | 0.9 | 1.7 | 0.00 | 0.39 | 0.13 | 93 | 1013.9 |
| 20260505053503 | 52 | 255 | 0.9 | 1.7 | 0.00 | 0.39 | 0.13 | 92 | 1014.0 |
| 20260505053003 | 52 | 255 | 0.9 | 2.6 | 0.00 | 0.39 | 0.13 | 93 | 1014.0 |
| 20260505052503 | 51 | 254 | 0.9 | 2.6 | 0.00 | 0.39 | 0.13 | 93 | 1013.9 |
| 20260505052003 | 51 | 254 | 0.9 | 1.7 | 0.00 | 0.39 | 0.13 | 93 | 1013.9 |
| 20260505051503 | 51 | 253 | 0.9 | 1.7 | 0.00 | 0.39 | 0.13 | 92 | 1013.9 |
| 20260505051003 | 51 | 253 | 0.0 | 1.7 | 0.00 | 0.39 | 0.13 | 92 | 1014.0 |
| 20260505050503 | 52 | 253 | 0.0 | 0.9 | 0.00 | 0.39 | 0.13 | 92 | 1014.0 |
| 20260505041503 | 52 | 215 | 0.9 | 2.6 | 0.01 | 0.39 | 0.13 | 92 | 1014.1 |
| 20260505041003 | 52 | 215 | 0.9 | 2.6 | 0.01 | 0.39 | 0.13 | 92 | 1014.2 |
| 20260505040503 | 52 | 215 | 0.9 | 2.6 | 0.01 | 0.39 | 0.13 | 92 | 1014.1 |
| 20260505040004 | 52 | 0 | 0.0 | 0.0 | 0.01 | 0.39 | 0.13 | 92 | 1014.0 |
| 20260505035503 | 52 | 272 | 0.0 | 0.9 | 0.01 | 0.39 | 0.13 | 92 | 1014.0 |
| 20260505035017 | 52 | 272 | 0.0 | 1.7 | 0.01 | 0.39 | 0.13 | 92 | 1014.0 |
| 20260505034504 | 52 | 272 | 0.0 | 1.7 | 0.01 | 0.39 | 0.13 | 92 | 1014.1 |
| 20260505034003 | 52 | 0 | 0.0 | 0.0 | 0.01 | 0.39 | 0.13 | 92 | 1014.1 |
| 20260505033503 | 52 | 252 | 0.0 | 0.9 | 0.00 | 0.38 | 0.13 | 92 | 1014.1 |
| 20260505033017 | 52 | 252 | 0.0 | 0.9 | 0.00 | 0.38 | 0.13 | 92 | 1014.1 |
| 20260505032503 | 52 | 214 | 0.0 | 2.6 | 0.00 | 0.38 | 0.13 | 92 | 1014.1 |
| 20260505032003 | 52 | 197 | 0.0 | 2.6 | 0.00 | 0.38 | 0.13 | 92 | 1014.1 |
| 20260505031503 | 52 | 184 | 0.9 | 2.6 | 0.00 | 0.38 | 0.13 | 92 | 1014.1 |
| 20260505031003 | 52 | 181 | 1.7 | 4.3 | 0.00 | 0.38 | 0.13 | 92 | 1014.1 |
| 20260505030503 | 52 | 170 | 0.9 | 4.3 | 0.00 | 0.39 | 0.13 | 92 | 1014.1 |
| 20260505030003 | 52 | 139 | 0.9 | 2.6 | 0.00 | 0.39 | 0.13 | 92 | 1014.0 |
| 20260505025503 | 52 | 102 | 0.9 | 2.6 | 0.01 | 0.39 | 0.13 | 92 | 1014.0 |
| 20260505025003 | 52 | 73 | 0.9 | 2.6 | 0.01 | 0.39 | 0.13 | 92 | 1014.1 |
| 20260505024503 | 52 | 16 | 0.9 | 3.5 | 0.01 | 0.39 | 0.13 | 92 | 1014.1 |
| 20260505024003 | 52 | 318 | 0.9 | 3.5 | 0.01 | 0.39 | 0.13 | 93 | 1014.1 |
| 20260505023503 | 52 | 307 | 0.9 | 2.6 | 0.01 | 0.40 | 0.13 | 93 | 1014.1 |
| 20260505023003 | 52 | 304 | 0.9 | 3.5 | 0.01 | 0.40 | 0.13 | 93 | 1014.1 |
| 20260505022503 | 52 | 293 | 1.7 | 5.2 | 0.01 | 0.40 | 0.13 | 93 | 1014.2 |
| 20260505022003 | 52 | 260 | 1.7 | 5.2 | 0.01 | 0.40 | 0.13 | 93 | 1014.2 |
| 20260505021503 | 52 | 245 | 0.9 | 4.3 | 0.01 | 0.40 | 0.13 | 93 | 1014.1 |
| 20260505021003 | 52 | 288 | 0.9 | 4.3 | 0.01 | 0.40 | 0.13 | 93 | 1014.2 |
| 20260505020503 | 52 | 280 | 1.7 | 6.1 | 0.01 | 0.40 | 0.13 | 93 | 1014.2 |
| 20260505020017 | 52 | 237 | 1.7 | 6.1 | 0.01 | 0.40 | 0.13 | 93 | 1014.3 |
| 20260505015503 | 53 | 188 | 1.7 | 5.2 | 0.00 | 0.39 | 0.12 | 93 | 1014.3 |
| 20260505015003 | 53 | 357 | 0.9 | 3.5 | 0.00 | 0.39 | 0.12 | 93 | 1014.3 |
| 20260505014503 | 53 | 342 | 0.0 | 1.7 | 0.00 | 0.39 | 0.12 | 93 | 1014.3 |
| 20260505014017 | 53 | 342 | 0.0 | 1.7 | 0.00 | 0.39 | 0.12 | 93 | 1014.3 |
| 20260505013503 | 53 | 342 | 0.0 | 1.7 | 0.00 | 0.39 | 0.12 | 93 | 1014.3 |
| 20260505013017 | 53 | 0 | 0.0 | 0.0 | 0.00 | 0.39 | 0.12 | 93 | 1014.4 |
| 20260505012503 | 53 | 342 | 0.0 | 0.9 | 0.00 | 0.39 | 0.12 | 93 | 1014.4 |
| 20260505012003 | 53 | 342 | 0.0 | 0.9 | 0.00 | 0.39 | 0.12 | 93 | 1014.5 |
| 20260505011503 | 53 | 342 | 0.0 | 0.9 | 0.00 | 0.39 | 0.12 | 93 | 1014.5 |
| 20260505011017 | 52 | 342 | 0.9 | 2.6 | 0.00 | 0.39 | 0.12 | 93 | 1014.6 |
| 20260505010503 | 52 | 343 | 0.9 | 2.6 | 0.00 | 0.39 | 0.12 | 93 | 1014.6 |
| 20260505010003 | 52 | 344 | 0.9 | 2.6 | 0.00 | 0.39 | 0.12 | 93 | 1014.6 |
| 20260505005503 | 52 | 344 | 0.9 | 2.6 | 0.00 | 0.39 | 0.12 | 93 | 1014.5 |
| 20260505005004 | 52 | 336 | 1.7 | 4.3 | 0.00 | 0.39 | 0.12 | 93 | 1014.4 |
| 20260505004503 | 52 | 326 | 1.7 | 4.3 | 0.00 | 0.39 | 0.12 | 93 | 1014.4 |
| 20260505004003 | 52 | 315 | 1.7 | 4.3 | 0.00 | 0.39 | 0.12 | 93 | 1014.4 |
| 20260505003503 | 52 | 302 | 0.9 | 3.5 | 0.00 | 0.39 | 0.12 | 93 | 1014.6 |
| 20260505003003 | 53 | 287 | 0.9 | 1.7 | 0.01 | 0.39 | 0.12 | 93 | 1014.7 |
| 20260505002503 | 53 | 286 | 0.0 | 1.7 | 0.01 | 0.39 | 0.12 | 93 | 1014.7 |
| 20260505002003 | 53 | 286 | 0.0 | 2.6 | 0.01 | 0.39 | 0.12 | 93 | 1014.7 |
| 20260505001526 | 52 | 286 | 0.0 | 2.6 | 0.01 | 0.39 | 0.12 | 93 | 1014.6 |
| 20260505001517 | 53 | 286 | 0.9 | 2.6 | 0.01 | 0.39 | 0.12 | 93 | 1014.8 |
| 20260505001003 | 53 | 286 | 0.9 | 2.6 | 0.01 | 0.39 | 0.12 | 93 | 1014.8 |
| 20260505000503 | 53 | 286 | 0.9 | 2.6 | 0.02 | 0.39 | 0.12 | 93 | 1014.9 |
| 20260505000019 | 52 | 286 | 0.9 | 2.6 | 0.02 | 0.39 | 0.12 | 93 | 1014.7 |
| 20260505000017 | 53 | 285 | 0.9 | 2.6 | 0.02 | 0.39 | 0.12 | 93 | 1015.0 |
| 20260504235503 | 53 | 285 | 0.9 | 2.6 | 0.03 | 0.39 | 0.12 | 93 | 1014.9 |
| 20260504235003 | 53 | 285 | 0.9 | 3.5 | 0.03 | 0.39 | 0.12 | 93 | 1014.9 |
| 20260504234517 | 53 | 284 | 0.9 | 3.5 | 0.04 | 0.39 | 0.12 | 93 | 1014.8 |
| 20260504234513 | 52 | 285 | 0.0 | 3.5 | 0.04 | 0.39 | 0.12 | 93 | 1014.7 |
| 20260504234003 | 53 | 280 | 0.9 | 2.6 | 0.05 | 0.39 | 0.12 | 93 | 1014.9 |
| 20260504233503 | 53 | 279 | 0.9 | 2.6 | 0.05 | 0.39 | 0.12 | 93 | 1014.9 |
| 20260504233010 | 52 | 278 | 0.0 | 2.6 | 0.04 | 0.39 | 0.11 | 93 | 1014.7 |
| 20260504233003 | 53 | 262 | 0.9 | 2.6 | 0.04 | 0.39 | 0.11 | 93 | 1015.0 |
| 20260504232503 | 53 | 245 | 0.9 | 2.6 | 0.05 | 0.39 | 0.11 | 93 | 1015.0 |
| 20260504232017 | 53 | 220 | 0.9 | 2.6 | 0.06 | 0.39 | 0.11 | 93 | 1014.9 |
| 20260504231503 | 53 | 208 | 0.9 | 2.6 | 0.08 | 0.39 | 0.11 | 93 | 1015.1 |
| 20260504231003 | 53 | 208 | 0.9 | 2.6 | 0.10 | 0.39 | 0.11 | 93 | 1015.1 |
| 20260504230503 | 53 | 207 | 0.0 | 1.7 | 0.10 | 0.38 | 0.10 | 93 | 1015.1 |
| 20260504230003 | 53 | 206 | 0.9 | 2.6 | 0.09 | 0.37 | 0.09 | 93 | 1015.3 |
| 20260504225503 | 53 | 206 | 1.7 | 2.6 | 0.09 | 0.36 | 0.09 | 92 | 1015.3 |
| 20260504225003 | 53 | 206 | 1.7 | 2.6 | 0.09 | 0.36 | 0.09 | 92 | 1015.2 |
| 20260504224504 | 53 | 192 | 0.9 | 2.6 | 0.08 | 0.35 | 0.08 | 92 | 1015.2 |
| 20260504224003 | 53 | 135 | 0.9 | 2.6 | 0.07 | 0.35 | 0.07 | 92 | 1015.1 |
| 20260504223503 | 54 | 69 | 0.9 | 2.6 | 0.07 | 0.35 | 0.07 | 91 | 1015.2 |
| 20260504223003 | 54 | 10 | 0.9 | 1.7 | 0.07 | 0.35 | 0.07 | 91 | 1015.2 |
| 20260504222503 | 54 | 360 | 0.0 | 1.7 | 0.06 | 0.34 | 0.06 | 91 | 1015.2 |
| 20260504222003 | 54 | 360 | 0.0 | 1.7 | 0.06 | 0.33 | 0.06 | 91 | 1015.2 |
| 20260504221503 | 54 | 360 | 0.0 | 1.7 | 0.03 | 0.31 | 0.03 | 91 | 1015.2 |
| 20260504221003 | 54 | 338 | 0.9 | 3.5 | 0.01 | 0.28 | 0.01 | 91 | 1015.2 |
| 20260504220503 | 54 | 309 | 1.7 | 4.3 | 0.00 | 0.28 | 0.00 | 91 | 1015.2 |
| 20260504220003 | 54 | 287 | 0.9 | 4.3 | 0.00 | 0.28 | 0.00 | 91 | 1015.3 |
| 20260504215503 | 54 | 263 | 0.9 | 2.6 | 0.00 | 0.28 | 0.28 | 91 | 1015.4 |
| 20260504215003 | 54 | 255 | 0.9 | 1.7 | 0.01 | 0.28 | 0.28 | 91 | 1015.4 |
| 20260504214503 | 54 | 255 | 0.0 | 1.7 | 0.01 | 0.28 | 0.28 | 91 | 1015.4 |
| 20260504214003 | 54 | 255 | 0.0 | 1.7 | 0.01 | 0.28 | 0.28 | 91 | 1015.5 |
| 20260504213503 | 54 | 255 | 0.9 | 1.7 | 0.01 | 0.28 | 0.28 | 91 | 1015.5 |
| 20260504213003 | 54 | 248 | 0.9 | 1.7 | 0.01 | 0.28 | 0.28 | 91 | 1015.4 |
| 20260504212503 | 54 | 243 | 0.9 | 1.7 | 0.01 | 0.28 | 0.28 | 91 | 1015.4 |
| 20260504212003 | 55 | 242 | 0.9 | 1.7 | 0.02 | 0.28 | 0.28 | 91 | 1015.4 |
| 20260504211503 | 55 | 242 | 0.0 | 1.7 | 0.03 | 0.28 | 0.28 | 91 | 1015.5 |
| 20260504211003 | 55 | 242 | 0.0 | 1.7 | 0.04 | 0.28 | 0.28 | 91 | 1015.4 |
| 20260504210503 | 55 | 237 | 0.9 | 2.6 | 0.05 | 0.28 | 0.28 | 91 | 1015.5 |
| 20260504210003 | 55 | 226 | 0.9 | 2.6 | 0.05 | 0.28 | 0.28 | 90 | 1015.5 |
| 20260504205503 | 55 | 215 | 0.0 | 1.7 | 0.06 | 0.28 | 0.28 | 90 | 1015.5 |
| 20260504205003 | 55 | 213 | 0.0 | 1.7 | 0.06 | 0.27 | 0.27 | 90 | 1015.5 |
| 20260504204503 | 55 | 211 | 0.0 | 0.9 | 0.07 | 0.27 | 0.27 | 90 | 1015.5 |
| 20260504204003 | 55 | 211 | 0.0 | 1.7 | 0.07 | 0.27 | 0.27 | 90 | 1015.4 |
| 20260504203503 | 55 | 210 | 0.9 | 1.7 | 0.07 | 0.27 | 0.27 | 90 | 1015.4 |
| 20260504203003 | 55 | 209 | 0.9 | 1.7 | 0.07 | 0.27 | 0.27 | 90 | 1015.4 |
| 20260504202503 | 55 | 209 | 0.9 | 1.7 | 0.07 | 0.27 | 0.27 | 90 | 1015.3 |
| 20260504202017 | 55 | 209 | 0.0 | 0.9 | 0.06 | 0.25 | 0.25 | 89 | 1015.2 |
| 20260504201517 | 55 | 209 | 0.0 | 1.7 | 0.06 | 0.24 | 0.24 | 89 | 1015.3 |
| 20260504201017 | 55 | 209 | 0.0 | 1.7 | 0.05 | 0.24 | 0.24 | 89 | 1015.2 |
| 20260504200517 | 55 | 208 | 0.9 | 2.6 | 0.04 | 0.23 | 0.23 | 88 | 1015.1 |
| 20260504200017 | 56 | 207 | 0.9 | 2.6 | 0.04 | 0.23 | 0.23 | 88 | 1015.1 |
| 20260504195503 | 56 | 206 | 0.0 | 1.7 | 0.03 | 0.23 | 0.22 | 88 | 1015.0 |
| 20260504195017 | 56 | 206 | 0.0 | 1.7 | 0.02 | 0.22 | 0.21 | 88 | 1015.0 |
| 20260504194503 | 56 | 195 | 0.0 | 1.7 | 0.01 | 0.20 | 0.20 | 88 | 1014.9 |
| 20260504194003 | 56 | 190 | 0.0 | 1.7 | 0.01 | 0.20 | 0.20 | 87 | 1014.8 |
| 20260504193503 | 56 | 182 | 0.0 | 0.9 | 0.01 | 0.20 | 0.20 | 87 | 1014.8 |
| 20260504193003 | 56 | 182 | 0.0 | 0.9 | 0.01 | 0.20 | 0.20 | 86 | 1014.9 |
| 20260504192517 | 56 | 222 | 0.9 | 2.6 | 0.01 | 0.20 | 0.20 | 86 | 1014.9 |
| 20260504192003 | 56 | 287 | 0.9 | 3.5 | 0.00 | 0.20 | 0.19 | 85 | 1014.8 |
| 20260504191503 | 56 | 306 | 0.9 | 3.5 | 0.00 | 0.20 | 0.19 | 85 | 1014.8 |
| 20260504191003 | 57 | 307 | 0.9 | 2.6 | 0.00 | 0.20 | 0.19 | 85 | 1014.8 |
| 20260504190503 | 57 | 307 | 0.0 | 1.7 | 0.00 | 0.20 | 0.19 | 86 | 1014.8 |
| 20260504190017 | 57 | 307 | 0.9 | 2.6 | 0.00 | 0.21 | 0.19 | 86 | 1014.8 |
| 20260504185503 | 57 | 307 | 0.9 | 2.6 | 0.00 | 0.22 | 0.19 | 86 | 1014.7 |
| 20260504185003 | 57 | 307 | 0.0 | 1.7 | 0.00 | 0.23 | 0.19 | 85 | 1014.6 |
| 20260504184503 | 57 | 307 | 0.0 | 1.7 | 0.00 | 0.23 | 0.19 | 85 | 1014.7 |
| 20260504184003 | 58 | 307 | 0.0 | 0.9 | 0.00 | 0.23 | 0.19 | 85 | 1014.6 |
| 20260504183517 | 57 | 307 | 0.0 | 0.9 | 0.00 | 0.23 | 0.19 | 85 | 1014.7 |
| 20260504183003 | 57 | 307 | 0.0 | 0.9 | 0.00 | 0.23 | 0.19 | 85 | 1014.6 |
| 20260504182503 | 57 | 307 | 0.0 | 1.7 | 0.00 | 0.24 | 0.19 | 85 | 1014.7 |
| 20260504182003 | 57 | 307 | 0.9 | 1.7 | 0.00 | 0.24 | 0.19 | 86 | 1014.6 |
| 20260504181503 | 57 | 307 | 0.9 | 1.7 | 0.00 | 0.24 | 0.19 | 87 | 1014.6 |
| 20260504181003 | 57 | 307 | 0.0 | 1.7 | 0.00 | 0.24 | 0.19 | 87 | 1014.6 |
| 20260504180503 | 57 | 307 | 0.0 | 1.7 | 0.00 | 0.24 | 0.19 | 87 | 1014.5 |
| 20260504180003 | 57 | 307 | 0.0 | 1.7 | 0.00 | 0.24 | 0.19 | 88 | 1014.7 |
| 20260504175503 | 57 | 306 | 0.0 | 1.7 | 0.00 | 0.24 | 0.19 | 88 | 1014.6 |
| 20260504175003 | 57 | 300 | 0.0 | 2.6 | 0.00 | 0.24 | 0.19 | 89 | 1014.6 |
| 20260504174503 | 57 | 275 | 0.0 | 2.6 | 0.00 | 0.24 | 0.19 | 89 | 1014.7 |
| 20260504174003 | 57 | 191 | 0.0 | 2.6 | 0.00 | 0.24 | 0.19 | 89 | 1014.7 |
| 20260504173517 | 57 | 177 | 0.9 | 2.6 | 0.00 | 0.24 | 0.19 | 89 | 1014.7 |
| 20260504173003 | 57 | 177 | 0.9 | 2.6 | 0.00 | 0.24 | 0.19 | 89 | 1014.7 |
| 20260504172503 | 57 | 177 | 0.0 | 1.7 | 0.00 | 0.24 | 0.19 | 90 | 1014.6 |
| 20260504172003 | 57 | 177 | 0.0 | 1.7 | 0.01 | 0.24 | 0.19 | 90 | 1014.6 |
| 20260504171503 | 56 | 177 | 0.0 | 0.9 | 0.01 | 0.24 | 0.19 | 90 | 1014.6 |
| 20260504171003 | 56 | 177 | 0.0 | 0.9 | 0.01 | 0.24 | 0.19 | 90 | 1014.6 |
| 20260504170503 | 56 | 177 | 0.0 | 1.7 | 0.01 | 0.24 | 0.19 | 90 | 1014.6 |
| 20260504151003 | 58 | 171 | 2.6 | 7.8 | 0.00 | 0.24 | 0.18 | 84 | 1014.4 |
| 20260504150503 | 58 | 157 | 1.7 | 7.8 | 0.00 | 0.24 | 0.18 | 85 | 1014.3 |
| 20260504141003 | 58 | 139 | 1.7 | 3.5 | 0.01 | 0.24 | 0.18 | 87 | 1014.6 |
| 20260504140503 | 57 | 143 | 0.9 | 3.5 | 0.01 | 0.24 | 0.18 | 88 | 1014.6 |
| 20260504130503 | 56 | 115 | 0.9 | 3.5 | 0.02 | 0.24 | 0.17 | 90 | 1014.9 |
| 20260504110503 | 56 | 21 | 0.9 | 3.5 | 0.00 | 0.22 | 0.15 | 90 | 1014.8 |